Lid_Strength_Index
0 -0 1 3 10 11 13 12 8 7 7 6 5 6 8 7 8 12 2 1 0 0 -0 -1 -2 -2 -2 -1 -1 -1 -1 -1 -1 -1 -1 -1 -1 -1 -1 -2 -1 -1 -1 -1 -1 -1 -1 -1 -2
2 1 4 6 12 15 13 9 10 7 6 5 5 6 7 9 5 4 3 0 0 -0 0 -0 -2 -2 -2 -2 -2 -1 -1 -1 -1 -1 -1 -1 -1 -1 -1 -1 -1 -1 -1 -1 -1 -1 -1 -1 -2
3 2 8 9 12 14 13 9 8 7 5 5 6 5 6 7 4 3 1 0 -0 0 0 -0 -2 -2 -2 -2 -2 -2 -1 -2 -2 -2 -1 -1 -1 -1 -1 -1 -1 -1 -1 -1 -1 -1 -1 -1 -1
7 9 9 11 12 10 10 9 6 6 6 5 5 7 4 2 3 2 0 0 0 0 0 -1 -2 -2 -2 -2 -2 -2 -2 -2 -2 -1 -1 -1 -1 -1 -1 -1 -1 -1 -1 -1 -1 -1 -1 -1 -1
8 11 10 12 11 9 8 7 7 7 7 6 6 7 6 3 1 1 1 0 1 0 0 -0 -2 -2 -2 -2 -2 -2 -1 -1 -2 -1 -1 -1 -1 -1 -2 -2 -2 -1 -1 -1 -1 -1 -2 -2 -1
9 12 12 13 11 9 8 7 7 7 6 6 6 6 6 2 2 1 0 1 0 0 0 -0 -2 -2 -2 -2 -2 -2 -2 -1 -1 -2 -2 -2 -2 -3 -2 -2 -2 -2 -2 -2 -1 -2 -2 -2 -2
11 13 14 12 11 10 8 6 7 7 6 7 5 7 6 3 2 1 1 0 0 -0 0 0 -0 -1 -2 -2 -2 -1 -2 -2 -2 -2 -2 -2 -2 -2 -2 -2 -2 -2 -2 -2 -2 -2 -2 -2 -2
10 13 11 11 11 10 7 6 6 6 7 4 3 7 7 3 1 1 1 1 0 0 0 0 1 0 0 -0 -2 -2 -2 -2 -2 -1 -2 -2 -2 -2 -2 -2 -2 -2 -2 -2 -1 -2 -2 -2 -2
10 14 15 11 10 9 6 8 8 6 5 5 5 4 3 2 2 3 2 2 1 1 1 0 0 1 0 0 -1 -1 -2 -2 -2 -1 -1 -1 1 1 -0 -1 -2 -2 -2 -2 -2 -2 -3 -4 -2
12 15 13 9 7 7 7 7 8 6 6 6 5 3 3 2 3 3 3 3 3 2 1 0 0 0 1 -1 0 -0 -0 0 0 1 1 1 1 1 -0 -1 -1 -2 -2 -3 -4 -4 -4 -0 3
12 13 11 8 5 5 6 8 7 6 8 6 6 4 4 3 4 3 3 3 2 2 1 0 0 0 0 0 0 0 1 1 2 2 2 2 1 1 -0 0 0 0 -2 1 1 2 2 4 2
13 11 9 6 5 6 7 6 7 6 6 4 4 3 4 4 4 4 3 3 3 2 1 1 0 0 1 0 1 2 2 2 2 2 2 1 1 3 1 3 5 5 6 2 2 3 2 3 3
11 10 9 5 6 6 5 6 7 8 5 3 3 3 4 5 4 4 3 3 2 2 2 1 1 1 1 3 3 2 3 2 2 1 1 1 1 4 5 6 6 6 4 3 2 1 2 3 4
10 9 9 6 6 6 6 7 7 8 4 4 4 4 4 5 4 5 4 3 3 2 2 2 2 2 1 3 3 2 2 2 1 0 1 0 2 4 5 6 5 3 2 2 2 2 2 3 4
9 10 9 9 7 7 7 8 10 6 5 5 5 5 5 4 4 5 4 3 3 3 2 2 1 1 1 1 1 1 0 0 0 0 1 2 4 5 5 6 4 2 2 1 1 2 2 2 3
10 11 13 10 8 8 7 11 9 6 6 6 5 5 5 4 4 4 4 3 4 2 2 2 0 1 1 1 1 0 1 1 1 2 3 3 4 4 6 5 3 2 2 1 1 1 2 3 3
12 12 11 9 8 8 9 11 9 7 7 7 6 6 5 5 5 5 4 3 3 2 2 2 2 1 1 1 1 1 1 1 2 2 3 4 4 3 5 4 2 2 2 1 1 2 2 4 4
14 14 13 12 9 9 9 9 7 8 7 7 7 6 6 6 5 5 5 4 3 1 1 1 1 1 1 0 1 1 2 2 2 3 4 5 4 3 3 2 2 2 3 2 1 3 2 3 4
11 12 12 12 10 10 8 9 7 7 8 8 8 7 6 6 5 5 5 3 3 1 1 1 1 1 1 1 2 3 3 3 4 4 5 4 3 3 3 2 2 2 3 2 1 1 3 3 3
10 12 12 11 8 9 10 9 8 7 7 7 8 8 7 6 6 6 5 3 3 2 1 2 1 1 1 1 1 2 3 4 4 4 4 3 3 3 3 3 2 2 3 2 2 2 3 4 4
11 12 12 11 10 9 10 11 9 7 7 7 7 7 7 6 6 6 5 3 3 2 2 2 1 1 1 1 1 3 4 5 5 5 5 4 3 3 3 2 2 2 3 2 3 3 4 5 5
13 10 10 10 13 15 10 15 11 9 8 7 6 7 7 7 6 5 5 4 3 2 1 1 1 1 1 1 1 3 4 5 6 5 5 5 3 2 2 2 2 2 2 2 2 2 4 5 6
10 9 11 10 13 15 15 14 12 10 10 8 7 6 6 5 6 6 5 4 3 2 2 2 1 1 1 1 1 2 4 6 7 6 6 5 4 2 1 2 2 2 2 2 2 3 4 5 6
8 10 11 12 13 16 15 15 15 12 9 9 7 6 5 7 5 5 4 4 3 2 2 2 2 2 1 1 1 2 5 7 6 6 6 5 4 3 1 1 2 2 2 2 2 3 4 5 6
11 14 17 17 16 16 13 16 14 11 10 9 9 8 7 8 4 5 4 4 3 3 3 2 2 2 1 1 1 3 5 6 6 6 6 5 4 3 2 2 2 2 2 2 2 3 5 5 6
12 13 16 19 18 16 13 15 13 10 8 8 8 7 7 5 6 4 4 3 4 3 3 2 3 2 2 1 1 4 6 6 6 6 6 4 3 2 2 2 2 2 2 2 3 4 5 6 6
11 14 12 15 16 17 15 12 10 8 7 7 7 7 7 6 6 4 3 4 4 3 3 3 4 3 2 2 2 5 6 7 7 6 6 4 3 2 1 1 2 2 2 2 4 5 5 6 6
11 10 14 15 18 19 16 15 13 10 9 8 8 9 8 6 6 5 4 4 3 3 3 3 3 2 2 2 3 5 6 6 6 6 6 4 3 2 1 2 2 3 3 4 4 6 6 6 7
11 12 13 14 15 17 17 15 10 10 9 9 8 8 8 6 6 5 4 4 3 3 3 4 5 5 3 2 2 4 5 6 6 6 5 4 3 2 1 2 3 4 4 5 5 6 6 6 7
10 11 12 15 15 14 15 14 8 8 8 8 8 7 7 6 5 5 4 4 4 3 4 6 6 4 2 2 2 3 5 5 7 6 5 4 3 2 1 2 4 4 5 5 6 6 6 7 8